{"data":{"norad_id":56880,"intl_designator":"2023-083E","name":"STARLINK-6177","alt_names":[],"object_type":"PAYLOAD","status":"ACTIVE","operator":null,"country":"US","launch_date":"2023-06-12","launch_site_code":"AFETR","launch_vehicle":null,"mission":null,"orbit_class":"UNKNOWN","rcs_meters":null,"size_class":null,"mass_kg":null,"dimensions":null,"purposes":["comms"],"wikipedia_slug":null,"has_3d_model":false,"image_url":null,"decayed_at":null,"tle_current":{"epoch":"2026-09-20T04:02:38.094144Z","epoch_age_seconds":146473,"freshness":"FRESH","line1":"1 56880U 23083E   26263.16849646 -.00001541  00000+0 -46459-4 0  9990","line2":"2 56880  43.0043  66.8657 0002089 258.0535 102.0082 15.27574908181379","mean_motion":15.27574908,"eccentricity":0.0002089,"inclination_deg":43.0043,"raan_deg":66.8657,"arg_perigee_deg":258.0535,"mean_anomaly_deg":102.0082,"bstar":-4.6459e-5,"rev_number":18137,"period_min":94.267062941309,"perigee_km":481.63103840122,"apogee_km":484.49764832247,"semimajor_km":6861.2013433618,"source":"CELESTRAK","updated_at":"2026-09-21T09:00:33.520100Z"}}}